Weather History for Waukegan, IL

Change the Weather History Date:

Sunday, December 15, 2013

  Actual Average Record
Temperature  
Mean Temperature 14 °F -  
Max Temperature 21 °F 34 °F 56 °F (2011)
Min Temperature 7 °F 20 °F -4 °F (2010)
Degree Days  
Heating Degree Days 51 38  
Month to date heating degree days 661 536  
Since 1 July heating degree days 2173 1921  
Cooling Degree Days 0 0  
Month to date cooling degree days 0 0  
Year to date cooling degree days 590 564  
Moisture  
Dew Point 6 °F    
Average Humidity 73    
Maximum Humidity 91    
Minimum Humidity 55    
Precipitation  
Precipitation T in 0.06 in 0.34 in (2012)
Month to date precipitation 0.18 1.15  
Year to date precipitation 28.36 34.74  
Sea Level Pressure  
Sea Level Pressure 30.02 in    
Wind  
Wind Speed 8 mph (West)    
Max Wind Speed 16 mph    
Max Gust Speed 25 mph    
Visibility 9 miles    
Events Snow    
T = Trace of Precipitation, MM = Missing Value Source: NWS Daily Summary

Daily Weather History Graph

Daily Weather History Graph

Search for Another Location

Airport:

Trip Planner

Search our weather history database for the weather conditions in past years. The results will help you decide how hot, cold, wet, or windy it might be!

Date:

Astronomy

Dec. 15, 2013 Rise Set
Actual Time 7:14 AM CST 4:19 PM CST
Civil Twilight 6:42 AM CST 4:51 PM CST
Nautical Twilight 6:06 AM CST 5:26 PM CST
Astronomical Twilight 5:32 AM CST 6:01 PM CST
Moon 3:24 PM CST (12/15) 5:28 AM CST (12/15)
Length of Visible Light 10h 09m
Length of Day
9h 05m
Waxing Gibbous, 98% of the Moon is Illuminated
Dec 15
Waxing Gibbous
Dec 17
Full
Dec 25
Last Quarter
Jan 1
New
Jan 7
First Quarter

Hourly Weather History & Observations

Time (CST) Temp. Windchill Dew Point Humidity Pressure Visibility Wind Dir Wind Speed Gust Speed Precip Events Conditions
12:52 AM 19.9 °F 13.4 °F 17.1 °F 89% 29.94 in 8.0 mi Variable 4.6 mph - N/A   Overcast
1:52 AM 21.0 °F 12.4 °F 17.1 °F 85% 29.94 in 8.0 mi WSW 6.9 mph - N/A   Overcast
2:01 AM 21.2 °F 13.6 °F 17.6 °F 86% 29.89 in 8.0 mi Variable 5.8 mph - N/A   Overcast
2:48 AM 19.4 °F 8.6 °F 15.8 °F 86% 29.89 in 9.0 mi West 9.2 mph 17.3 mph N/A   Overcast
2:52 AM 19.9 °F 9.3 °F 15.1 °F 81% 29.94 in 8.0 mi West 9.2 mph 20.7 mph N/A   Overcast
3:52 AM 18.0 °F 5.4 °F 12.9 °F 81% 29.95 in 8.0 mi West 11.5 mph 20.7 mph N/A   Overcast
4:16 AM 17.6 °F 7.3 °F 12.2 °F 79% 29.89 in 8.0 mi West 8.1 mph 18.4 mph N/A   Overcast
4:52 AM 17.1 °F 6.6 °F 12.0 °F 81% 29.96 in 5.0 mi West 8.1 mph 18.4 mph 0.00 in   Haze
5:52 AM 16.0 °F 3.6 °F 10.0 °F 77% 29.97 in 2.0 mi West 10.4 mph 20.7 mph 0.00 in Snow Light Snow
6:10 AM 15.8 °F 2.1 °F 6.8 °F 68% 29.93 in 6.0 mi WNW 12.7 mph 24.2 mph 0.00 in Snow Light Snow
6:40 AM 15.8 °F 2.7 °F 5.0 °F 62% 29.94 in 10.0 mi WNW 11.5 mph 17.3 mph 0.00 in   Overcast
6:52 AM 15.1 °F 4.2 °F 6.1 °F 68% 30.00 in 10.0 mi WNW 8.1 mph 17.3 mph 0.00 in   Overcast
7:52 AM 12.9 °F 2.6 °F 5.0 °F 71% 30.02 in 9.0 mi West 6.9 mph - N/A   Overcast
8:52 AM 12.9 °F -0.9 °F 5.0 °F 71% 30.03 in 9.0 mi West 11.5 mph - N/A   Overcast
9:52 AM 14.0 °F 2.9 °F 3.9 °F 64% 30.04 in 10.0 mi West 8.1 mph 16.1 mph N/A   Overcast
10:52 AM 14.0 °F 2.0 °F 3.9 °F 64% 30.04 in 10.0 mi West 9.2 mph 17.3 mph N/A   Overcast
11:52 AM 15.1 °F 1.8 °F 5.0 °F 64% 30.03 in 10.0 mi West 11.5 mph 18.4 mph N/A   Overcast
12:52 PM 15.1 °F 1.1 °F 3.9 °F 61% 30.03 in 10.0 mi West 12.7 mph 17.3 mph N/A   Overcast
1:52 PM 16.0 °F 7.4 °F 3.9 °F 59% 30.03 in 10.0 mi WSW 5.8 mph - N/A   Partly Cloudy
2:52 PM 15.1 °F 4.2 °F 3.9 °F 61% 30.05 in 10.0 mi WSW 8.1 mph - N/A   Clear
3:52 PM 12.9 °F 3.8 °F 1.9 °F 62% 30.07 in 10.0 mi West 5.8 mph - N/A   Clear
4:52 PM 10.9 °F 1.4 °F 1.9 °F 67% 30.09 in 10.0 mi Variable 5.8 mph - N/A   Clear
5:52 PM 10.0 °F 1.8 °F 1.9 °F 70% 30.10 in 10.0 mi WSW 4.6 mph - N/A   Clear
6:52 PM 9.0 °F -0.9 °F 1.0 °F 70% 30.12 in 10.0 mi WSW 5.8 mph - N/A   Clear
7:52 PM 8.1 °F -0.5 °F -0.0 °F 70% 30.14 in 10.0 mi West 4.6 mph - N/A   Clear
8:52 PM 8.1 °F 1.4 °F -0.0 °F 70% 30.15 in 10.0 mi Variable 3.5 mph - N/A   Clear
9:52 PM 8.1 °F -2.0 °F -2.0 °F 64% 30.17 in 10.0 mi WNW 5.8 mph - N/A   Clear
10:52 PM 8.1 °F -3.2 °F -5.1 °F 55% 30.17 in 10.0 mi WNW 6.9 mph - N/A   Partly Cloudy
11:52 PM 7.0 °F -3.3 °F -6.0 °F 55% 30.17 in 10.0 mi WNW 5.8 mph - N/A   Overcast